Tiempo cada hora Abaigar

Hoy, 20 Octubre, Martes

Tiempo Temperatura Precipitaciones Viento Presión Humedad
00:00 +13°C° 0 mm 6 mps 704 mmHg 83%
01:00 +13°C° 0 mm 6 mps 704 mmHg 84%
02:00 +12°C° 0 mm 7 mps 704 mmHg 85%
03:00 +12°C° 0 mm 7 mps 703 mmHg 86%
04:00 +12°C° 0.5 mm 7 mps 703 mmHg 87%
05:00 +12°C° 0.5 mm 8 mps 703 mmHg 88%
06:00 +11°C° 0.5 mm 8 mps 703 mmHg 89%
07:00 +12°C° 0.1 mm 8 mps 703 mmHg 87%
08:00 +12°C° 0.1 mm 8 mps 703 mmHg 85%
09:00 +13°C° 0.1 mm 8 mps 703 mmHg 83%
10:00 +13°C° 0.1 mm 9 mps 703 mmHg 83%
11:00 +13°C° 0.1 mm 9 mps 703 mmHg 82%
12:00 +13°C° 0.1 mm 10 mps 703 mmHg 82%
13:00 +13°C° 0.3 mm 10 mps 702 mmHg 79%
14:00 +14°C° 0.3 mm 11 mps 701 mmHg 77%
15:00 +16°C° 0.3 mm 11 mps 700 mmHg 74%
16:00 +14°C° 0 mm 11 mps 700 mmHg 74%
17:00 +14°C° 0 mm 12 mps 699 mmHg 73%
18:00 +14°C° 0 mm 12 mps 698 mmHg 73%
19:00 +14°C° 0 mm 12 mps 698 mmHg 75%
20:00 +13°C° 0 mm 12 mps 698 mmHg 77%
21:00 +13°C° 0 mm 12 mps 698 mmHg 79%
22:00 +13°C° 0 mm 11 mps 698 mmHg 79%
23:00 +13°C° 0 mm 11 mps 698 mmHg 80%

Mañana, 21 Octubre, Miércoles

Tiempo Temperatura Precipitaciones Viento Presión Humedad
00:00 +13°C° 0 mm 11 mps 698 mmHg 80%
01:00 +13°C° 0.2 mm 10 mps 698 mmHg 81%
02:00 +13°C° 0.2 mm 10 mps 699 mmHg 81%
03:00 +13°C° 0.2 mm 9 mps 699 mmHg 82%
04:00 +13°C° 0 mm 8 mps 700 mmHg 83%
05:00 +12°C° 0 mm 7 mps 700 mmHg 85%
06:00 +13°C° 0 mm 6 mps 700 mmHg 87%
07:00 +14°C° 0 mm 7 mps 701 mmHg 81%
08:00 +15°C° 0 mm 7 mps 702 mmHg 74%
09:00 +16°C° 0 mm 7 mps 703 mmHg 68%
10:00 +18°C° 0 mm 8 mps 703 mmHg 60%
11:00 +20°C° 0 mm 8 mps 703 mmHg 52%
12:00 +22°C° 0 mm 8 mps 703 mmHg 44%
13:00 +21°C° 0 mm 8 mps 703 mmHg 45%
14:00 +21°C° 0 mm 8 mps 703 mmHg 46%
15:00 +21°C° 0 mm 8 mps 703 mmHg 47%
16:00 +20°C° 0 mm 7 mps 703 mmHg 50%
17:00 +19°C° 0 mm 6 mps 703 mmHg 53%
18:00 +17°C° 0 mm 5 mps 703 mmHg 57%
19:00 +16°C° 0.1 mm 5 mps 703 mmHg 62%
20:00 +17°C° 0.1 mm 4 mps 704 mmHg 67%
21:00 +15°C° 0.1 mm 4 mps 704 mmHg 73%
22:00 +15°C° 0 mm 4 mps 704 mmHg 75%
23:00 +14°C° 0 mm 3 mps 704 mmHg 77%

Pasado mañana, 22 Octubre, Jueves

Tiempo Temperatura Precipitaciones Viento Presión Humedad
00:00 +14°C° 0 mm 3 mps 704 mmHg 79%
01:00 +13°C° 0 mm 3 mps 704 mmHg 79%
02:00 +13°C° 0 mm 3 mps 704 mmHg 80%
03:00 +13°C° 0 mm 3 mps 705 mmHg 80%
04:00 +13°C° 0 mm 3 mps 705 mmHg 82%
05:00 +12°C° 0 mm 3 mps 705 mmHg 84%
06:00 +13°C° 0 mm 2 mps 705 mmHg 86%
07:00 +13°C° 0 mm 3 mps 706 mmHg 82%
08:00 +14°C° 0 mm 3 mps 706 mmHg 79%
09:00 +16°C° 0 mm 3 mps 707 mmHg 75%
10:00 +17°C° 0.1 mm 4 mps 707 mmHg 69%
11:00 +18°C° 0.1 mm 4 mps 707 mmHg 62%
12:00 +19°C° 0.1 mm 4 mps 707 mmHg 56%
13:00 +20°C° 0.3 mm 4 mps 707 mmHg 56%
14:00 +20°C° 0.3 mm 4 mps 707 mmHg 55%
15:00 +20°C° 0.3 mm 3 mps 707 mmHg 55%
16:00 +18°C° 0.6 mm 3 mps 707 mmHg 62%
17:00 +17°C° 0.6 mm 3 mps 707 mmHg 69%
18:00 +15°C° 0.6 mm 2 mps 707 mmHg 76%
19:00 +15°C° 0.4 mm 2 mps 707 mmHg 77%
20:00 +15°C° 0.4 mm 1 mps 708 mmHg 78%
21:00 +15°C° 0.4 mm 1 mps 708 mmHg 79%
22:00 +14°C° 0.2 mm 1 mps 708 mmHg 82%
23:00 +13°C° 0.2 mm 1 mps 708 mmHg 85%

23 Octubre, Viernes

Tiempo Temperatura Precipitaciones Viento Presión Humedad
00:00 +13°C° 0.2 mm 1 mps 709 mmHg 87%
01:00 +12°C° 0.2 mm 1 mps 709 mmHg 88%
02:00 +12°C° 0.2 mm 1 mps 709 mmHg 88%
03:00 +12°C° 0.2 mm 1 mps 709 mmHg 89%
04:00 +12°C° 0.2 mm 1 mps 709 mmHg 89%
05:00 +12°C° 0.2 mm 1 mps 709 mmHg 89%
06:00 +12°C° 0.2 mm 1 mps 709 mmHg 89%
07:00 +13°C° 0.3 mm 1 mps 710 mmHg 84%
08:00 +14°C° 0.3 mm 1 mps 710 mmHg 79%
09:00 +15°C° 0.3 mm 1 mps 711 mmHg 74%
10:00 +16°C° 0.2 mm 2 mps 711 mmHg 67%
11:00 +17°C° 0.2 mm 3 mps 711 mmHg 61%
12:00 +18°C° 0.2 mm 4 mps 712 mmHg 55%
13:00 +18°C° 0.1 mm 4 mps 712 mmHg 56%
14:00 +17°C° 0.1 mm 4 mps 712 mmHg 57%
15:00 +17°C° 0.1 mm 4 mps 712 mmHg 59%
16:00 +14°C° 0 mm 3 mps 712 mmHg 68%
17:00 +13°C° 0 mm 3 mps 712 mmHg 77%
18:00 +12°C° 0 mm 2 mps 712 mmHg 87%
19:00 +10°C° 0 mm 2 mps 712 mmHg 89%
20:00 +10°C° 0 mm 2 mps 713 mmHg 91%
21:00 +10°C° 0 mm 1 mps 713 mmHg 92%
22:00 +10°C° 0 mm 1 mps 713 mmHg 92%
23:00 +10°C° 0 mm 1 mps 713 mmHg 92%

24 Octubre, Sábado

Tiempo Temperatura Precipitaciones Viento Presión Humedad
00:00 +9°C° 0 mm 1 mps 713 mmHg 92%
01:00 +9°C° 0 mm 1 mps 713 mmHg 91%
02:00 +9°C° 0 mm 1 mps 713 mmHg 90%
03:00 +9°C° 0 mm 1 mps 713 mmHg 89%
04:00 +8°C° 0 mm 1 mps 712 mmHg 89%
05:00 +7°C° 0 mm 0 mps 712 mmHg 88%
06:00 +7°C° 0 mm 0 mps 712 mmHg 87%
07:00 +9°C° 0 mm 0 mps 712 mmHg 82%
08:00 +11°C° 0 mm 1 mps 712 mmHg 76%
09:00 +13°C° 0 mm 1 mps 712 mmHg 70%
10:00 +14°C° 0 mm 1 mps 712 mmHg 64%
11:00 +15°C° 0 mm 2 mps 712 mmHg 58%
12:00 +17°C° 0 mm 2 mps 712 mmHg 53%
13:00 +17°C° 0 mm 2 mps 711 mmHg 51%
14:00 +17°C° 0 mm 2 mps 711 mmHg 49%
15:00 +18°C° 0 mm 2 mps 710 mmHg 47%
16:00 +16°C° 0 mm 2 mps 710 mmHg 53%
17:00 +14°C° 0 mm 2 mps 709 mmHg 59%
18:00 +13°C° 0 mm 1 mps 709 mmHg 64%
19:00 +12°C° 0 mm 1 mps 708 mmHg 65%
20:00 +12°C° 0 mm 1 mps 708 mmHg 66%
21:00 +11°C° 0 mm 1 mps 708 mmHg 67%
22:00 +11°C° 0 mm 1 mps 708 mmHg 69%
23:00 +10°C° 0 mm 1 mps 707 mmHg 71%

25 Octubre, Domingo

Tiempo Temperatura Precipitaciones Viento Presión Humedad
00:00 +10°C° 0 mm 1 mps 707 mmHg 73%
01:00 +9°C° 0 mm 1 mps 706 mmHg 74%
02:00 +9°C° 0 mm 1 mps 706 mmHg 76%
03:00 +9°C° 0 mm 1 mps 705 mmHg 78%
04:00 +9°C° 0 mm 1 mps 705 mmHg 79%
05:00 +8°C° 0 mm 1 mps 705 mmHg 81%
06:00 +8°C° 0 mm 1 mps 705 mmHg 82%
07:00 +8°C° 0 mm 2 mps 704 mmHg 77%
08:00 +10°C° 0 mm 2 mps 704 mmHg 72%
09:00 +12°C° 0 mm 2 mps 704 mmHg 67%
10:00 +12°C° 0 mm 3 mps 704 mmHg 61%
11:00 +14°C° 0 mm 3 mps 704 mmHg 56%
12:00 +16°C° 0 mm 3 mps 704 mmHg 50%
13:00 +14°C° 0.2 mm 3 mps 704 mmHg 55%
14:00 +14°C° 0.2 mm 2 mps 704 mmHg 61%
15:00 +13°C° 0.2 mm 2 mps 704 mmHg 66%
16:00 +11°C° 0.9 mm 3 mps 705 mmHg 71%
17:00 +9°C° 0.9 mm 3 mps 705 mmHg 76%
18:00 +6°C° 0.9 mm 4 mps 705 mmHg 82%
19:00 +5°C° 0 mm 3 mps 706 mmHg 83%
20:00 +5°C° 0 mm 3 mps 706 mmHg 84%
21:00 +6°C° 0 mm 2 mps 706 mmHg 85%
22:00 +6°C° 0 mm 2 mps 707 mmHg 85%
23:00 +6°C° 0 mm 2 mps 707 mmHg 84%

26 Octubre, Lunes

Tiempo Temperatura Precipitaciones Viento Presión Humedad
00:00 +5°C° 0 mm 3 mps 707 mmHg 84%
01:00 +4°C° 0 mm 3 mps 707 mmHg 84%
02:00 +5°C° 0 mm 2 mps 707 mmHg 85%
03:00 +5°C° 0 mm 2 mps 707 mmHg 86%
04:00 +5°C° 0 mm 2 mps 708 mmHg 86%
05:00 +5°C° 0 mm 2 mps 709 mmHg 86%
06:00 +4°C° 0 mm 2 mps 709 mmHg 86%
07:00 +5°C° 0 mm 3 mps 710 mmHg 80%
08:00 +7°C° 0 mm 3 mps 710 mmHg 74%
09:00 +7°C° 0 mm 4 mps 711 mmHg 68%
10:00 +8°C° 0 mm 5 mps 711 mmHg 64%
11:00 +10°C° 0 mm 5 mps 711 mmHg 60%
12:00 +11°C° 0 mm 6 mps 711 mmHg 56%
13:00 +11°C° 0 mm 6 mps 711 mmHg 54%
14:00 +11°C° 0 mm 6 mps 711 mmHg 53%
15:00 +12°C° 0 mm 5 mps 711 mmHg 51%
16:00 +11°C° 0 mm 4 mps 711 mmHg 59%
17:00 +10°C° 0 mm 3 mps 711 mmHg 66%
18:00 +9°C° 0 mm 2 mps 711 mmHg 74%
19:00 +8°C° 0 mm 2 mps 711 mmHg 77%
20:00 +8°C° 0 mm 2 mps 711 mmHg 80%
21:00 +8°C° 0 mm 1 mps 712 mmHg 82%
22:00 +8°C° 0 mm 1 mps 712 mmHg 82%
23:00 +8°C° 0 mm 1 mps 711 mmHg 82%
Mostrar más

Necesitamos Su Consentimiento

Meteoprog y nuestros Proveedores de Servicios pueden almacenar y acceder a sus datos personales como cookies, identificadores de dispositivo u otras tecnologías similares de su dispositivo y procesar dichos datos para personalizar contenido y anuncios, además de ofrecer funciones de redes sociales y analizar el tráfico.

  • Almacenar y/o acceder a información en su dispositivo

    Se puede almacenar o acceder a cookies, identificadores de dispositivo u otra información de su dispositivo para los fines anteriormente indicados.

  • Anuncios y contenido personalizados, medición de anuncios y contenido, percepciones del público, y desarrollo de productos

    Los anuncios y el contenido pueden personalizarse en base a su perfil. Se pueden añadir más datos para personalizar mejor los anuncios y contenidos. Se puede medir el rendimiento de los anuncios y contenidos. Se puede obtener la percepción sobre el público que ha visto los anuncios y contenidos. Dichos datos pueden usarse para desarrollar o mejorar la experiencia del usuario, sistemas y software.

Al hacer clic en ‘Estoy De Acuerdo’ usted permitirá el uso de las cookies, identificadores de dispositivo, balizas web u otras tecnologías similares indicadas. Su configuración puede cambiarse desde el navegador de su dispositivo.

Para ciertos fines, los intereses legítimos pueden ser considerados por encima del consentimiento. Puede leer más sobre ello en nuestra Política de Privacidad y Cookies.